Location: Ash Observatory
(39.7321°N, 75.2004°W)
Time: 08:09:03
(UTC-04:00)

Envisat - Pass Details

Date: 25 March 2019
Orbit: 764 x 766 km, 98.2° (Epoch: 24 April)

Event Time Altitude Azimuth Distance (km) Brightness Sun altitude
Rises 21:06:19 0° 218° (SW) 3,220 6.4 -21.1°
Reaches altitude 10° 21:10:13 10° 248° (WSW) 2,301 6.1 -21.8°
Maximum altitude 21:12:07 12° 271° (W) 2,166 6.2 -22.2°
Drops below altitude 10° 21:14:01 10° 293° (WNW) 2,307 6.6 -22.5°
Sets 21:17:59 0° 324° (NW) 3,239 7.2 -23.2°
